Zurück zum Katalog

STARLINK-37673

AktivKommunikationVLEO
NORAD 69370·PAYLOAD·🇺🇸 United States

Gestartet Jun 4, 2026 von Cape Canaveral Space Force Station

Loading…

Nächste Überflüge (nächste 24 Stunden)

TLE

AktuellSource: CelesTrak SupGP

Epoche: Sep 15, 2026, 03:11 UTC

1 69370C 26123T   26258.13312500  .00037337  00000+0  11035-2 0  2589
2 69370  53.1579 166.7807 0001433 104.2711   1.3918 15.34361441    14

Verfolge STARLINK-37673 in Echtzeit mit AllMySat

Download on the App Store